Altus AFB, OK

8:15 PM CST on December 03, 2016 (GMT -0600)
Altus Air Force Base

Weather History for KLTS - May, 2011

Change the Weather History Date:

Wednesday, May 25, 2011

  Actual Average Record
Temperature  
Mean Temperature 74 °F -  
Max Temperature 84 °F 85 °F 100 °F (2006)
Min Temperature 62 °F 62 °F 55 °F (2015)
Cooling Degree Days 9    
Growing Degree Days 24 (Base 50)    
Moisture  
Dew Point 47 °F    
Average Humidity 40    
Maximum Humidity 61    
Minimum Humidity 31    
Precipitation  
Precipitation 0.00 in - - ()
Sea Level Pressure  
Sea Level Pressure 29.72 in    
Wind  
Wind Speed 15 mph (NW)    
Max Wind Speed 32 mph    
Max Gust Speed 40 mph    
Visibility 10 miles    
Events      
Averages and records for this station are not official NWS values.
T = Trace of Precipitation, MM = Missing Value Source: NWS Daily Summary

Daily Weather History Graph

Daily Weather History Graph

Search for Another Location

Airport or City:

Trip Planner

Search our weather history database for the weather conditions in past years. The results will help you decide how hot, cold, wet, or windy it might be!

Date:

Astronomy

May. 25, 2011 Rise Set
Actual Time 6:28 AM CDT 8:40 PM CDT
Civil Twilight 5:59 AM CDT 9:08 PM CDT
Nautical Twilight 5:24 AM CDT 9:43 PM CDT
Astronomical Twilight 4:46 AM CDT 10:21 PM CDT
Moon 2:12 AM CDT (5/25) 2:20 PM CDT (5/25)
Length of Visible Light 15h 09m
Length of Day
14h 12m
Last Quarter, 41% of the Moon is Illuminated
May 25
Last Quarter
Jun 1
New
Jun 8
First Quarter
Jun 15
Full
Jun 23
Last Quarter

Hourly Weather History & Observations

Time (CDT) Temp. Dew Point Humidity Pressure Visibility Wind Dir Wind Speed Gust Speed Precip Events Conditions
12:55 AM 67.6 °F 36.1 °F 31% 29.55 in 10.0 mi North 3.5 mph - N/A   Clear
1:55 AM 67.6 °F 39.2 °F 35% 29.57 in 10.0 mi NW 8.1 mph - N/A   Clear
2:55 AM 65.8 °F 41.2 °F 41% 29.58 in 10.0 mi WNW 6.9 mph - N/A   Clear
3:55 AM 65.1 °F 41.0 °F 41% 29.60 in 10.0 mi WNW 11.5 mph - N/A   Clear
4:55 AM 64.4 °F 41.2 °F 43% 29.61 in 10.0 mi West 8.1 mph - N/A   Clear
5:55 AM 64.9 °F 43.2 °F 45% 29.61 in 10.0 mi West 10.4 mph - N/A   Clear
6:55 AM 64.6 °F 43.9 °F 47% 29.64 in 10.0 mi West 11.5 mph - N/A   Clear
7:55 AM 67.1 °F 44.8 °F 45% 29.64 in 10.0 mi West 15.0 mph 21.9 mph N/A   Clear
8:55 AM 72.3 °F 46.4 °F 40% 29.64 in 10.0 mi WNW 26.5 mph 33.4 mph N/A   Clear
9:55 AM 76.1 °F 46.9 °F 36% 29.64 in 10.0 mi WNW 25.3 mph 36.8 mph N/A   Clear
10:55 AM 79.2 °F 47.1 °F 32% 29.65 in 10.0 mi WNW 32.2 mph 39.1 mph N/A   Clear
11:55 AM 81.5 °F 48.6 °F 32% 29.68 in 10.0 mi WNW 20.7 mph 38.0 mph N/A   Clear
12:55 PM 83.1 °F 50.4 °F 32% 29.69 in 10.0 mi NW 25.3 mph 34.5 mph N/A   Partly Cloudy
1:55 PM 83.8 °F 50.5 °F 31% 29.71 in 10.0 mi NW 25.3 mph 34.5 mph N/A   Partly Cloudy
2:55 PM 84.6 °F 50.4 °F 31% 29.73 in 10.0 mi NNW 28.8 mph 38.0 mph N/A   Clear
3:55 PM 82.6 °F 49.6 °F 32% 29.75 in 10.0 mi NNW 26.5 mph 35.7 mph N/A   Clear
4:55 PM 81.9 °F 49.3 °F 32% 29.76 in 10.0 mi NNW 26.5 mph 40.3 mph N/A   Clear
5:55 PM 80.8 °F 49.8 °F 34% 29.79 in 10.0 mi NNW 24.2 mph 38.0 mph N/A   Clear
6:55 PM 78.1 °F 50.4 °F 38% 29.81 in 10.0 mi NNW 24.2 mph 32.2 mph N/A   Clear
7:55 PM 75.0 °F 49.8 °F 41% 29.85 in 10.0 mi North 21.9 mph 32.2 mph N/A   Clear
8:55 PM 70.7 °F 50.7 °F 49% 29.89 in 10.0 mi North 16.1 mph 23.0 mph N/A   Clear
9:55 PM 67.3 °F 50.7 °F 55% 29.93 in 10.0 mi North 20.7 mph 25.3 mph N/A   Clear
10:55 PM 65.5 °F 49.3 °F 56% 29.96 in 10.0 mi NNE 17.3 mph 25.3 mph N/A   Clear
11:55 PM 62.8 °F 48.9 °F 61% 29.97 in 10.0 mi NNE 12.7 mph - N/A   Clear